Weather reports worldwide

Advertisment
Aerodrome Albert-Bray, France (7059): temperature & dewpoint: 16.08.2019 20:00:00 - 22.08.2019 20:00:00 (CEST)Aerodrome Albert-Bray, France (7059): wind speed & gusts: 16.08.2019 20:00:00 - 22.08.2019 20:00:00 (CEST)Aerodrome Albert-Bray, France (7059): wind direction: 16.08.2019 20:00:00 - 22.08.2019 20:00:00 (CEST)Aerodrome Albert-Bray, France (7059): reduced air pressure: 16.08.2019 20:00:00 - 22.08.2019 20:00:00 (CEST)Aerodrome Albert-Bray, France (7059): visibility: 16.08.2019 20:00:00 - 22.08.2019 20:00:00 (CEST)Aerodrome Albert-Bray, France (7059): precipitation: 16.08.2019 20:00:00 - 22.08.2019 20:00:00 (CEST)
Date & Time tt [°C] td [°C] ff [km/h] ff [kn] fx [km/h] fx [kn] dd ppp [hPa] vv [km] rr [mm]
22.08.2019 20:00:00 21,0 11,1 16 9 26 14 NNW 1025,5 10 0,0
22.08.2019 19:00:00 22,9 10,7 15 8 29 15 NW 1025,2 10 0,0
22.08.2019 18:00:00 23,7 11,4 18 10 29 16 NW 1025,1 10 0,0
22.08.2019 17:00:00 24,3 9,8 13 7 23 12 W 1025,1 10 0,0
22.08.2019 16:00:00 24,2 11,5 10 5 23 13 WNW 1025,4 45 0,0
22.08.2019 15:00:00 23,6 10,6 11 6 23 13 W 1025,7 37 0,0
22.08.2019 14:00:00 23,0 10,4 13 7 27 15 W 1026,0 10 0,0
22.08.2019 13:00:00 22,6 10,4 9 5 22 12 WNW 1026,3 10 0,0
22.08.2019 12:00:00 21,7 10,5 10 5 18 10 W 1026,6 45 0,0
22.08.2019 11:00:00 20,6 11,2 8 5 16 9 W 1026,6 27 0,0
22.08.2019 10:00:00 18,0 10,6 4 2 9 5 - 1026,5 10 0,0
22.08.2019 09:00:00 14,9 11,9 4 2 9 5 - 1026,3 10 0,0
22.08.2019 08:00:00 11,8 10,2 5 3 7 4 NW 1026,5 10 0,0
22.08.2019 07:00:00 9,7 8,8 5 3 13 7 NNW 1026,1 10 0,0
22.08.2019 06:00:00 9,6 8,2 5 3 10 5 WNW 1025,9 10 0,0
22.08.2019 05:00:00 11,7 8,4 2 1 7 4 SW 1025,7 10 0,0
22.08.2019 04:00:00 11,1 8,5 8 4 9 5 ENE 1025,8 10 0,0
22.08.2019 03:00:00 11,4 8,4 9 5 10 6 NNE 1026,0 32 0,0
22.08.2019 02:00:00 11,3 8,9 6 4 18 10 N 1026,1 35 0,0
22.08.2019 01:00:00 12,0 9,2 15 8 24 13 WNW 1026,5 10 0,0
22.08.2019 00:00:00 14,8 8,3 5 3 13 7 NE 1026,6 10 0,0
21.08.2019 23:00:00 14,6 8,3 7 4 8 5 ENE 1026,5 51 0,0
21.08.2019 22:00:00 17,4 7,2 5 3 7 4 ESE 1026,4 10 0,0
21.08.2019 21:00:00 19,9 6,6 4 2 7 4 SE 1026,1 10 0,0
21.08.2019 20:00:00 21,2 9,1 4 2 12 7 - 1025,8 10 0,0
21.08.2019 19:00:00 22,1 8,2 5 3 21 11 S 1025,8 10 0,0
21.08.2019 18:00:00 22,5 7,8 5 3 19 10 ESE 1026,1 10 0,0
21.08.2019 17:00:00 22,5 8,9 4 2 14 8 - 1026,3 10 0,0
21.08.2019 16:00:00 22,1 8,6 8 4 14 8 - 1026,7 10 0,0
21.08.2019 15:00:00 21,3 7,9 5 3 20 11 NE 1027,3 20 0,0
21.08.2019 14:00:00 20,5 8,8 11 6 20 11 SE 1027,6 10 0,0
21.08.2019 13:00:00 19,9 9,7 5 3 15 8 SSE 1028,2 39 0,0
21.08.2019 12:00:00 18,9 9,1 4 2 12 6 SSE 1028,9 20 0,0
21.08.2019 11:00:00 17,8 11,8 4 2 16 8 - 1029,1 10 0,0
21.08.2019 10:00:00 16,4 12,6 2 1 6 4 - 1029,2 10 0,0
21.08.2019 09:00:00 13,8 11,8 0 0 5 3 N 1029,3 10 0,2
21.08.2019 08:00:00 10,1 9,8 0 0 4 2 N 1029,1 11 0,0
21.08.2019 07:00:00 8,3 7,9 4 2 8 5 - 1028,8 8 0,0
21.08.2019 06:00:00 8,6 8,2 5 3 7 4 - 1028,4 0,9 0,0
21.08.2019 05:00:00 9,6 8,8 4 2 6 3 S 1028,4 10 0,0
21.08.2019 04:00:00 9,8 9,0 5 3 6 4 S 1028,5 19 0,0
21.08.2019 03:00:00 10,1 8,5 5 3 7 4 S 1028,3 10 0,0
21.08.2019 02:00:00 10,7 8,5 4 2 7 4 SSE 1028,5 33 0,0
21.08.2019 01:00:00 12,5 9,1 8 4 19 10 WNW 1028,4 10 0,0
21.08.2019 00:00:00 12,2 8,7 11 6 18 10 WNW 1028,1 10 0,0
20.08.2019 23:00:00 14,0 8,4 9 5 14 8 WNW 1027,8 10 0,0
20.08.2019 22:00:00 14,9 8,8 7 4 14 8 NW 1027,4 51 0,0
20.08.2019 21:00:00 15,9 8,4 11 6 27 15 WNW 1026,9 10 0,0
20.08.2019 20:00:00 18,0 9,3 18 10 32 17 WNW 1026,3 10 0,0
20.08.2019 19:00:00 19,2 9,1 22 12 36 19 WNW 1025,7 10 0,0
20.08.2019 18:00:00 19,8 9,4 23 12 38 20 W 1025,1 48 0,0
20.08.2019 17:00:00 20,6 10,7 22 12 41 22 W 1025,0 10 0,0
20.08.2019 16:00:00 21,2 10,7 23 12 41 22 WNW 1024,3 39 0,0
20.08.2019 15:00:00 20,6 10,4 21 12 38 20 WNW 1024,1 25 0,0
20.08.2019 14:00:00 20,9 9,5 22 12 37 20 W 1023,8 10 0,0
20.08.2019 13:00:00 20,2 10,6 24 13 36 19 W 1024,0 10 0,0
20.08.2019 12:00:00 18,6 10,7 17 9 33 18 WNW 1024,0 20 0,0
20.08.2019 11:00:00 17,7 12,2 19 10 31 17 W 1023,7 33 0,0
20.08.2019 10:00:00 16,4 12,7 21 11 26 14 WSW 1023,3 10 0,0
20.08.2019 09:00:00 14,3 12,5 13 7 19 10 SW 1023,5 10 0,0
20.08.2019 08:00:00 10,7 10,4 8 4 12 7 SW 1023,1 10 0,0
20.08.2019 07:00:00 9,2 8,9 11 6 15 8 S 1022,8 11 0,2
20.08.2019 06:00:00 10,0 9,5 5 3 8 5 SSW 1021,9 1,0 0,0
20.08.2019 05:00:00 11,0 10,5 5 3 7 4 SW 1021,9 6 0,0
20.08.2019 04:00:00 11,4 10,8 4 2 7 4 SSW 1021,9 10 0,0
20.08.2019 03:00:00 11,9 11,1 5 3 9 5 SSW 1021,9 10 0,0
20.08.2019 02:00:00 12,3 11,4 6 3 8 5 S 1021,8 16 0,0
20.08.2019 01:00:00 12,4 10,6 8 4 11 6 S 1021,9 10 0,0
20.08.2019 00:00:00 14,1 11,1 8 4 17 9 W 1021,6 20 0,0
19.08.2019 23:00:00 15,2 11,2 6 3 11 6 WNW 1020,9 20 0,0
19.08.2019 22:00:00 14,8 11,4 9 5 19 10 NW 1020,6 36 0,0
19.08.2019 21:00:00 16,5 11,2 9 5 21 11 WNW 1019,8 10 0,0
19.08.2019 20:00:00 18,7 11,3 15 8 27 14 WNW 1019,3 39 0,0
19.08.2019 19:00:00 18,8 10,9 15 8 35 19 WNW 1019,1 10 0,0
19.08.2019 18:00:00 20,3 11,2 24 13 41 22 W 1018,8 60 0,0
19.08.2019 17:00:00 21,7 9,6 34 18 47 25 WSW 1018,4 17 0,0
19.08.2019 16:00:00 21,2 11,5 26 14 42 23 W 1018,3 10 0,0
19.08.2019 15:00:00 20,8 10,6 26 14 44 24 WSW 1018,1 22 0,0
19.08.2019 14:00:00 21,5 11,5 29 16 48 26 WSW 1017,6 25 0,0
19.08.2019 13:00:00 20,6 11,5 24 13 42 23 WSW 1017,7 33 0,0
19.08.2019 12:00:00 19,2 12,5 21 12 44 24 WSW 1017,4 20 0,0
19.08.2019 11:00:00 17,8 12,3 24 13 37 20 WSW 1017,2 10 0,0
19.08.2019 10:00:00 16,0 13,1 21 11 29 16 SW 1016,8 10 0,0
19.08.2019 09:00:00 13,8 12,0 16 9 22 12 SSW 1016,6 20 0,0
19.08.2019 08:00:00 12,1 11,3 11 6 21 11 SSW 1016,4 10 0,0
19.08.2019 07:00:00 10,0 9,4 9 5 13 7 S 1016,2 10 0,0
19.08.2019 06:00:00 10,7 9,6 11 6 19 10 SSW 1015,6 10 0,0
19.08.2019 05:00:00 11,3 10,0 15 8 19 11 SW 1015,1 10 0,0
19.08.2019 04:00:00 11,3 9,7 14 8 18 10 SSW 1014,9 35 0,0
19.08.2019 03:00:00 11,2 9,1 12 7 18 10 SSW 1014,6 40 0,0
19.08.2019 02:00:00 12,2 9,8 13 7 22 12 SW 1014,5 10 0,0
19.08.2019 01:00:00 11,6 9,5 15 8 17 9 WSW 1013,8 10 0,0
19.08.2019 00:00:00 12,7 10,2 14 8 23 12 WSW 1013,3 42 0,0
18.08.2019 23:00:00 14,5 11,5 9 5 13 7 W 1012,6 44 0,0
18.08.2019 22:00:00 15,1 12,0 9 5 20 11 W 1012,2 10 0,0
18.08.2019 21:00:00 17,2 12,5 15 8 25 14 W 1011,5 10 0,0
18.08.2019 20:00:00 17,6 10,7 16 9 31 17 W 1010,9 57 0,0
18.08.2019 19:00:00 19,8 10,5 21 11 42 23 W 1010,5 10 0,0
18.08.2019 18:00:00 19,9 10,6 28 15 48 26 W 1010,1 17 0,0
18.08.2019 17:00:00 20,4 11,3 28 15 47 25 WNW 1009,8 10 0,0
18.08.2019 16:00:00 20,0 13,9 22 12 42 23 W 1009,2 10 0,0
18.08.2019 15:00:00 19,0 14,9 22 12 37 20 W 1008,5 10 0,0
18.08.2019 14:00:00 18,1 15,5 21 11 31 17 W 1008,1 10 0,0
18.08.2019 13:00:00 17,0 14,6 19 11 29 16 W 1007,2 55 0,0
18.08.2019 12:00:00 16,5 14,7 17 9 27 15 W 1006,1 56 0,0
18.08.2019 11:00:00 16,0 15,2 18 10 30 16 W 1005,2 10 0,0
18.08.2019 10:00:00 15,7 15,4 16 9 22 12 WSW 1004,4 10 5,2
18.08.2019 09:00:00 14,9 14,6 8 5 13 7 SE 1003,6 2,0 6,1
18.08.2019 08:00:00 14,7 14,4 5 3 8 5 NNE 1003,9 2,4 3,6
18.08.2019 07:00:00 14,6 14,3 8 4 10 5 SE 1004,6 3,8 3,8
18.08.2019 06:00:00 14,8 14,5 5 3 12 7 - 1005,7 4,4 4,9
18.08.2019 05:00:00 14,8 14,3 9 5 12 6 ESE 1006,3 2,5 1,2
18.08.2019 04:00:00 15,0 14,2 7 4 21 12 S 1007,3 13 0,4
18.08.2019 03:00:00 15,8 15,5 12 6 16 9 S 1008,3 12 0,0
18.08.2019 02:00:00 15,8 15,5 9 5 15 8 S 1008,1 5 0,2
18.08.2019 01:00:00 15,6 15,1 8 4 12 7 S 1008,6 5 0,0
18.08.2019 00:00:00 15,7 15,1 8 4 12 7 WSW 1008,9 10 0,0
17.08.2019 23:00:00 15,7 15,1 5 3 9 5 WSW 1008,8 9 0,0
17.08.2019 22:00:00 16,3 15,5 8 4 14 7 W 1009,1 12 0,0
17.08.2019 21:00:00 16,7 15,7 5 3 11 6 W 1008,5 10 0,0
17.08.2019 20:00:00 17,4 15,9 9 5 18 10 WSW 1008,6 17 0,0
17.08.2019 19:00:00 17,7 16,2 9 5 19 10 W 1008,5 10 0,6
17.08.2019 18:00:00 17,1 16,5 11 6 22 12 W 1009,1 2,6 0,6
17.08.2019 17:00:00 16,8 16,0 17 9 29 16 WNW 1008,8 4,8 1,2
17.08.2019 16:00:00 18,2 16,7 18 10 34 19 W 1008,6 7 0,0
17.08.2019 15:00:00 19,5 18,2 24 13 40 21 SSW 1008,2 10 0,0
17.08.2019 14:00:00 19,3 18,1 26 14 36 19 SSW 1008,2 40 0,2
17.08.2019 13:00:00 18,6 17,9 24 13 35 19 SSW 1008,7 2,8 1,0
17.08.2019 12:00:00 18,3 17,7 24 13 34 18 SSW 1008,7 4,0 1,0
17.08.2019 11:00:00 18,1 16,6 21 11 36 19 SSW 1008,8 3,0 0,4
17.08.2019 10:00:00 18,0 16,0 26 14 42 23 SSW 1008,9 10 0,0
17.08.2019 09:00:00 17,5 15,7 24 13 35 19 SSW 1008,9 47 0,0
17.08.2019 08:00:00 16,7 15,2 25 13 37 20 SSW 1008,7 15 0,0
17.08.2019 07:00:00 16,5 14,9 23 12 37 20 SSW 1008,6 52 0,0
17.08.2019 06:00:00 16,6 14,8 26 14 40 22 SSW 1008,6 57 0,0
17.08.2019 05:00:00 16,9 14,5 26 14 45 25 SW 1008,8 10 0,0
17.08.2019 04:00:00 16,8 14,3 18 10 41 22 SW 1008,9 5 0,2
17.08.2019 03:00:00 17,7 13,6 18 10 39 21 SSW 1009,1 10 0,0
17.08.2019 02:00:00 17,3 13,8 23 13 40 21 SSW 1009,6 59 0,0
17.08.2019 01:00:00 16,9 13,8 16 9 25 14 S 1010,2 56 0,0
17.08.2019 00:00:00 17,2 13,5 15 8 21 11 SSW 1011,0 10 0,2
16.08.2019 23:00:00 18,6 12,3 15 8 21 11 SSW 1011,5 60 0,0
16.08.2019 22:00:00 18,4 13,0 15 8 19 10 WSW 1011,7 10 0,0
16.08.2019 21:00:00 19,7 13,2 16 8 29 16 SW 1011,7 41 0,0
16.08.2019 20:00:00 21,6 12,2 23 13 37 20 SW 1011,6 59 0,0

tt = temperature
td = dewpoint
ff = wind speed
fx = gusts
dd = wind direction
ppp = reduced air pressure
vv = visibility
rr = precipitation

Next stations